Location: Unspecified
(33.9239°N, 118.0544°W)
Time: 03:35:27
(UTC-07:00)

Daily predictions for brighter satellites

Satellite Brightness Start Highest point End
(mag) Time Altitude Azimuth Time Altitude Azimuth Time Altitude Azimuth
CZ-4C R/B 3.2 00:08:02 36° NE 00:08:02 36° NE 00:11:29 10° NE
Cosmos 1844 Rocket 3.3 00:39:30 51° NNE 00:39:30 51° NNE 00:43:37 10° NNE
CZ-2C R/B 4.1 00:50:10 44° WNW 00:50:10 44° WNW 00:54:29 10° NNW
CZ-2C R/B 4.5 01:15:12 10° NNW 01:18:52 21° WNW 01:18:52 21° WNW
H-2A R/B 4.4 01:18:00 10° NNE 01:20:19 29° NNE 01:20:19 29° NNE
Cosmos 2278 Rocket 2.7 01:27:04 56° NNE 01:27:04 56° NNE 01:31:30 10° NNE
Nadezhda 4 Rocket 4.5 01:35:13 52° E 01:35:13 52° E 01:41:04 10° NNE
Cosmos 2297 4.3 01:46:52 51° ENE 01:46:52 51° ENE 01:51:25 10° NNE
Cosmos 2279 Rocket 4.2 01:47:57 10° NNW 01:53:28 63° NW 01:53:28 63° NW
CZ-4C R/B 4.3 01:53:11 15° WNW 01:55:01 17° NW 01:58:46 10° N
Meteor 1-10 Rocket 4.4 01:50:47 10° N 01:56:01 71° NNE 01:56:01 71° NNE
Cosmos 2082 Rocket 3.3 01:58:16 10° N 02:03:31 39° ENE 02:04:46 35° E
Cosmos 44 4.2 02:10:25 43° NNE 02:10:25 43° NNE 02:13:30 10° NNE
ADEOS Rocket 4.2 02:03:20 10° NNE 02:10:17 40° E 02:12:01 35° SE
Cosmos 2112 Rocket 4.5 02:09:32 10° NNW 02:13:42 56° NNW 02:13:42 56° NNW
ATLAS 3B R/B 2.8 02:15:40 67° SSE 02:16:28 73° ESE 02:23:45 10° NE
Cosmos 44 Rocket 4.1 02:19:53 47° NNW 02:19:53 47° NNW 02:23:38 10° NNE
Helios 1A Rocket 4.3 02:21:12 10° N 02:23:43 36° N 02:23:43 36° N
Meteor 1-27 Rocket 3.7 02:19:36 10° N 02:25:34 84° E 02:25:43 83° ESE
Cosmos 1680 Rocket 4.4 02:22:30 10° NNW 02:26:02 38° NW 02:26:02 38° NW
Cosmos 1674 Rocket 4.4 02:24:21 10° N 02:27:55 47° NE 02:27:55 47° NE
Cosmos 1937 Rocket 3.6 02:30:03 72° NNE 02:30:03 72° NNE 02:34:42 10° NNE
Milstar 3 4.4 02:33:10 27° SSE 02:33:53 27° SE 02:43:45 10° E
Cosmos 1908 Rocket 4.4 02:35:31 47° ENE 02:35:31 47° ENE 02:39:12 10° NNE
Meteor 2-20 Rocket 4.3 02:35:56 75° S 02:36:30 86° E 02:42:42 10° N
Resurs 1-4 Rocket 3.0 02:35:23 10° NNE 02:40:19 38° E 02:41:09 36° ESE
COBE Rocket 4.3 02:36:15 10° NNE 02:40:59 55° E 02:41:00 55° E
Geosat 4.1 02:37:25 10° NNE 02:42:20 68° ESE 02:42:20 68° ESE
Cosmos 1898 Rocket 4.1 02:43:27 45° WNW 02:43:27 45° WNW 02:48:09 10° N
Cosmos 990 Rocket 3.9 02:45:28 74° NW 02:45:28 74° NW 02:50:24 10° NNE
SeaSat 1 2.4 02:45:36 84° ENE 02:45:36 84° ENE 02:50:32 10° NNW
Cosmos 1092 Rocket 4.1 02:46:12 55° W 02:46:38 56° W 02:52:48 10° N
Cosmos 1378 Rocket 4.2 02:46:07 10° N 02:50:18 49° E 02:50:20 49° E
Delta 2 Rocket 4.4 02:53:06 46° ESE 02:53:06 46° ESE 02:56:24 10° ESE
IRS-1C 4.0 02:49:19 10° NNE 02:54:41 86° ESE 02:55:09 75° S
Cosmos 1340 4.4 02:51:02 10° NNW 02:52:52 26° NNW 02:52:52 26° NNW
CZ-2D R/B 2.6 02:50:49 10° NNE 02:56:07 54° E 02:57:14 46° SE
SL-08 R/B 3.2 02:57:17 86° W 02:57:17 86° W 03:02:07 10° NNW
Cosmos 1782 Rocket 4.0 02:57:32 53° ESE 02:57:42 53° E 03:02:04 10° NNE
Cosmos 2026 Rocket 3.8 02:58:14 63° SSW 02:59:11 78° W 03:05:15 10° N
ARIANE 5 R/B 2.9 02:55:32 10° NNE 03:00:24 52° E 03:01:18 46° SE
Spot 4 Rocket 4.1 02:57:54 10° NNE 03:03:03 69° ESE 03:03:51 58° SSE
CBERS-1 4.2 03:02:50 10° N 03:07:49 52° WNW 03:08:06 52° W
USA 238 DEB 3.8 03:06:09 48° WSW 03:08:08 70° WNW 03:15:07 10° NNE
USA 238 3.8 03:06:15 48° WSW 03:08:14 70° WNW 03:15:14 10° NNE
IRS-1D 3.5 03:05:35 10° NNE 03:10:40 76° ESE 03:11:33 59° SSE
Centaur D AC-25 4.4 02:30:02 10° WSW 03:11:58 61° S 03:17:58 10° E
Meteor 1-20 Rocket 4.5 03:14:39 40° SSE 03:16:45 67° E 03:22:33 10° NNE
Cosmos 1943 Rocket 3.7 03:14:38 18° SE 03:17:28 28° ESE 03:22:11 10° NE
Cosmos 1437 3.8 03:15:51 10° N 03:18:38 43° ENE 03:18:38 43° ENE
Cosmos 724 4.4 03:17:55 46° S 03:19:49 75° ESE 03:26:01 10° NNE
GP-B 4.0 03:15:50 10° NNW 03:19:22 35° WNW 03:19:22 35° WNW
Cosmos 2369 Rocket 2.5 03:18:13 40° SSE 03:20:00 58° ESE 03:25:31 10° NNE
NPP 4.4 03:16:42 10° N 03:21:36 36° WNW 03:22:20 35° W
UNK 3.7 03:21:08 54° SSE 03:22:13 88° ENE 03:26:54 10° NNW
Cosmos 1833 Rocket 3.1 03:17:02 10° NW 03:22:09 42° W 03:22:09 42° W
Cosmos 1655 Rocket 4.1 03:25:44 44° SW 03:27:30 59° W 03:33:40 10° N
Cosmos 1812 2.6 03:24:32 10° N 03:28:24 79° E 03:28:42 72° SE
COSMOS 2455 3.8 03:27:29 24° SSE 03:30:28 41° ESE 03:36:02 10° NE
Cosmos 372 Rocket 4.1 03:29:52 41° S 03:31:39 69° ESE 03:36:49 10° NNE
Cosmos 1975 Rocket 3.0 03:27:28 10° N 03:31:49 85° E 03:32:56 50° SSE
SL-16 R/B 2.5 03:31:45 32° S 03:34:46 71° WSW 03:41:01 10° NNW
ADEOS II 4.3 03:32:02 10° NE 03:35:44 19° E 03:39:26 10° SE
CZ-3B DEB 4.0 03:24:51 10° NW 03:38:11 88° NE 03:48:28 10° SE
Meteor 1-25 Rocket 4.3 03:43:47 38° SW 03:45:40 57° W 03:51:13 10° N
ASTRO E2 3.1 03:46:58 43° SSE 03:46:58 43° SSE 03:50:45 10° E
USA 267 3.3 03:40:26 10° NE 03:46:58 78° NW 03:50:31 30° SW
Cosmos 2082 Rocket 3.5 03:42:58 10° NW 03:46:32 22° W 03:46:32 22° W
NOSS 3-2 (C) 3.4 03:45:13 34° SSW 03:47:58 86° ESE 03:54:23 10° NNE
NOSS 3-2 (A) 3.4 03:46:06 35° SW 03:48:43 71° WNW 03:55:08 10° NNE
SL-24 R/B 4.5 03:46:13 10° NNE 03:50:30 65° ESE 03:53:18 25° S
ADEOS Rocket 4.3 03:48:50 10° N 03:55:31 35° WNW 03:58:58 23° WSW
MOZ.5/SAFIR/RUBIN 5/SL-8 3.7 03:56:03 16° SSE 03:59:51 89° WSW 04:04:37 10° NNW
Cosmos 2266 Rocket 4.0 03:58:28 24° SSW 04:02:32 72° W 04:08:57 10° N
GENESIS II 4.3 04:01:50 40° SW 04:03:10 71° WNW 04:07:12 10° NNE
Cosmos 1633 2.7 04:03:18 42° SW 04:04:06 53° W 04:07:41 10° N
CENTAUR R/B 3.6 04:01:24 12° S 04:06:13 35° ESE 04:11:57 10° NE
ADEOS 4.4 04:02:55 10° N 04:07:37 35° WNW 04:09:49 24° WSW
ATLAS 3B R/B 4.3 04:02:55 13° W 04:07:47 24° NW 04:13:25 10° N
Cosmos 1048 Rocket 4.0 04:04:18 10° NNW 04:09:42 88° WSW 04:15:03 10° SSE
GRACE-1 3.7 04:09:58 59° WSW 04:10:09 62° W 04:12:49 10° N
GRACE-2 3.7 04:10:22 59° WSW 04:10:35 62° W 04:13:15 10° N
Okean 1 3.5 04:07:05 10° NNW 04:11:03 54° W 04:12:59 27° SSW
S3M 4.4 04:05:45 10° NNW 04:11:28 42° W 04:14:58 22° SSW
Gbstr 26 Del rocket 2.6 04:10:14 34° WSW 04:11:43 70° NW 04:15:28 10° NE
Resurs 1-4 Rocket 3.5 04:15:49 10° NNW 04:19:52 23° WNW 04:22:14 17° WSW
Okean 1 Rocket 3.8 04:15:37 10° S 04:19:57 52° E 04:24:18 10° NNE
Cosmos 2344 4.0 04:15:51 20° WSW 04:21:10 53° NW 04:29:16 10° NNE
Okean 2 Rocket 4.5 04:20:13 20° W 04:21:26 22° WNW 04:24:54 10° NNW
MOS 1 Rocket 4.2 04:18:39 10° N 04:23:35 39° WNW 04:26:38 20° SW
CZ-4B R/B 4.4 04:19:40 10° NNE 04:24:53 40° E 04:30:09 10° SSE
CZ-4B R/B 3.6 04:22:59 10° NNE 04:26:31 45° E 04:29:58 10° S
BREEZE M DEB (TANK) 3.4 04:21:32 18° SW 04:26:56 69° SE 04:29:52 10° ENE
Meteor 2-4 Rocket 4.2 04:22:19 10° N 04:27:53 61° E 04:33:15 10° SSE
Centaur D-1AR AC-40 3.8 04:14:15 10° WSW 04:28:44 33° SSW 04:33:07 10° SE
Cosmos 1441 Rocket 3.2 04:26:04 10° NNW 04:30:02 69° W 04:33:59 10° S
Delta 2 Rocket 4.5 04:30:15 13° W 04:33:55 29° SSW 04:37:47 10° SSE
Meteor 1-13 Rocket 4.1 04:28:50 10° NNW 04:34:21 75° W 04:39:55 10° S
Meteor 1-11 Rocket 3.8 04:29:26 13° SSW 04:34:27 67° W 04:40:14 10° N
CZ-2D R/B 3.9 04:32:22 10° NNW 04:35:41 17° WNW 04:38:34 11° W
ARIANE 5 R/B 4.3 04:36:15 10° NNW 04:39:03 15° WNW 04:41:38 11° W
UNKNOWN OBJECT B 4.4 04:36:56 10° NNW 04:39:30 18° WNW 04:41:05 14° W
Cosmos 1300 Rocket 3.7 04:36:07 14° SSW 04:39:54 58° W 04:44:18 10° N
CCE 1 Rocket 4.4 04:43:47 15° WSW 04:46:09 26° SSW 04:49:33 10° SE
PSLV R/B 4.4 04:45:44 10° W 04:48:47 37° NNW 04:51:55 10° NE
Molniya-1 3.2 04:52:25 13° S 04:53:47 37° ESE 04:55:17 10° NE
Okean O Rocket 1.6 04:50:57 10° N 04:55:21 79° WNW 04:59:44 10° SSW
USA 161 2.9 05:00:09 12° WSW 05:00:57 14° W 05:02:22 10° WNW
Cosmos 1943 Rocket 3.1 04:56:11 11° SW 05:01:02 33° WNW 05:06:07 10° N
Cosmos 2369 Rocket 3.9 05:00:47 10° W 05:04:23 17° WNW 05:08:02 10° NNW
Cosmos 1745 Rocket 4.1 05:00:03 10° S 05:06:25 87° E 05:12:46 10° N
Cosmos 1536 4.1 05:10:18 10° SW 05:13:33 24° WNW 05:16:49 10° NNW
ADEOS II 2.6 05:10:39 10° N 05:15:35 42° WNW 05:20:30 10° SW
COSMOS 2455 4.0 05:11:23 10° WSW 05:16:27 28° NW 05:21:33 10° N
